Wind_Speed
4 5 6 7 9 8 5 4 7 8 6 5 12 21 21 16 15 16 16 15 14 14 14 14 14 14 15 15 14 13 12 12 11 11 11 10 9 7 5 4 3 2 1 1 1 1 1 1 2 3 4 5 5 5 5 6 6 6 6 7 7 8 8 9 9 9 9 10 11 12 13 14 14 15 15 16 17 18 19 20 20 20 20 19 19
4 5 4 5 6 6 5 4 6 8 10 11 16 22 21 18 18 18 17 17 16 15 15 14 14 14 14 14 13 12 12 11 11 11 11 10 10 8 7 5 4 3 3 3 4 5 5 5 6 6 6 7 8 8 9 9 9 9 9 9 10 10 11 11 11 12 12 13 14 15 15 16 16 16 17 17 18 18 19 20 20 21 21 22 21
5 6 5 5 6 6 6 4 6 9 10 14 19 22 21 21 21 20 19 19 18 17 16 15 15 14 14 13 12 12 12 13 13 13 13 12 11 10 8 7 6 6 6 6 7 8 8 9 9 9 9 9 9 10 10 10 11 11 12 12 13 13 13 13 14 15 15 16 16 16 16 16 16 17 18 18 19 20 20 20 21 21 22 22 23
7 8 8 7 6 7 8 6 6 9 10 13 18 23 24 23 23 23 22 21 20 19 18 17 17 16 15 15 15 15 15 15 16 15 14 13 12 11 9 8 7 7 7 8 9 9 10 10 11 11 12 11 11 11 12 12 12 12 13 13 13 14 14 14 15 16 17 18 18 18 18 17 17 17 18 18 19 20 20 21 21 22 23 23 24
10 11 11 10 9 9 9 8 6 9 12 13 17 22 25 26 26 26 24 23 22 21 20 20 19 18 18 18 18 18 18 19 19 18 16 14 13 11 10 9 8 8 9 9 10 10 11 11 12 12 13 14 14 14 13 14 14 14 14 14 14 15 15 16 17 18 18 20 21 22 22 22 21 21 21 20 20 20 20 21 21 22 23 24 25
14 15 15 14 12 11 11 11 8 10 15 16 17 21 25 27 29 29 27 25 23 22 22 21 21 20 20 21 21 22 22 22 22 21 18 16 15 14 12 10 10 10 9 10 10 11 11 12 13 13 13 14 15 15 15 15 15 15 15 16 17 17 18 19 20 21 22 23 24 25 25 26 26 26 25 24 23 23 22 22 22 22 23 24 25
18 18 17 16 15 14 13 13 12 11 15 19 21 22 24 27 30 32 30 28 27 26 25 23 22 22 22 23 24 25 26 25 25 24 20 18 17 16 14 12 11 11 10 9 10 10 10 12 13 14 14 14 15 15 16 16 16 16 17 18 20 21 21 22 24 25 26 27 28 28 28 28 28 28 28 27 26 26 25 25 24 24 25 25 26
16 16 16 15 15 15 16 16 16 15 15 20 23 24 26 29 32 34 33 32 30 29 29 27 25 25 26 27 28 29 29 27 27 26 23 21 20 18 14 12 12 11 10 9 9 9 9 10 12 14 15 16 16 16 17 17 18 19 20 21 23 24 25 26 27 29 30 30 30 30 30 29 28 28 29 29 30 30 29 28 27 27 26 27 28
16 15 15 15 15 16 18 19 20 20 18 18 20 24 27 29 33 36 36 35 33 31 32 32 30 30 31 31 32 33 33 32 30 29 28 25 22 17 14 12 13 13 11 10 10 10 10 10 11 13 15 17 19 20 21 21 22 22 23 24 26 27 28 29 30 31 31 31 31 32 31 29 28 29 30 31 32 32 31 31 31 30 29 29 29
16 16 17 17 17 18 20 21 23 23 21 20 21 23 24 25 30 37 39 37 36 35 36 35 35 36 36 35 36 37 37 35 31 28 28 26 22 17 14 14 14 14 13 12 12 12 13 13 13 14 15 17 18 20 22 23 24 24 25 26 28 29 30 30 31 31 31 31 30 31 32 32 31 30 31 32 31 31 32 32 32 32 31 31 31
16 18 18 19 19 20 21 22 23 22 22 22 23 24 24 24 25 34 42 44 42 40 39 37 38 39 36 34 38 40 36 31 26 22 21 21 21 18 16 16 16 16 15 15 15 15 15 15 16 17 18 19 20 21 22 23 25 26 27 28 29 30 31 31 31 31 31 30 29 29 32 36 36 33 31 31 30 31 32 32 33 33 33 33 33
16 17 18 19 20 20 21 22 22 22 22 23 25 25 26 24 21 24 34 43 43 40 36 34 35 35 28 23 25 28 25 21 19 19 18 18 18 17 16 17 17 17 16 16 16 17 18 19 20 20 21 22 22 23 24 25 26 27 28 30 31 31 31 31 32 32 31 30 30 31 34 38 38 34 30 30 31 32 33 34 35 36 36 36 36
17 16 16 17 17 18 19 20 21 22 22 23 24 25 24 22 19 18 21 28 31 31 28 25 26 27 22 17 16 18 18 16 17 18 18 17 17 16 16 17 17 16 17 18 18 19 20 21 21 21 22 22 23 23 24 25 26 27 28 30 31 32 32 32 33 33 32 32 33 34 36 39 38 34 30 30 32 34 35 36 37 38 39 39 39
19 18 16 16 16 17 17 18 19 21 22 23 24 24 23 21 20 19 19 21 23 23 21 20 21 22 20 18 17 18 18 16 17 18 18 18 18 17 17 18 17 18 18 19 20 20 21 21 22 23 23 24 24 25 25 25 26 27 28 29 31 31 32 33 33 33 33 34 35 36 37 38 39 37 34 34 36 37 38 38 39 40 40 40 40
20 19 18 18 17 17 17 18 19 20 21 23 25 26 24 22 21 20 21 22 23 22 20 21 22 22 20 19 19 21 19 18 19 20 20 20 19 19 19 18 18 18 19 19 20 20 22 23 24 25 26 27 27 27 27 27 27 27 28 29 30 31 32 33 33 33 33 34 36 37 38 39 39 39 38 39 40 40 40 40 41 41 42 42 41
22 22 21 20 19 19 19 20 20 21 21 22 24 27 28 25 22 22 22 24 25 25 24 23 22 22 21 21 23 23 21 20 21 21 21 21 20 20 19 19 19 19 19 20 21 22 24 25 26 27 27 28 28 28 29 29 29 29 30 31 31 32 33 34 34 34 35 36 38 39 39 40 40 40 40 40 41 41 41 42 42 43 43 44 43
25 24 23 22 22 21 21 20 21 20 20 20 23 26 29 28 26 25 25 27 29 29 27 25 23 22 22 23 24 25 23 22 23 24 23 23 21 21 20 20 20 20 20 22 23 25 26 26 27 27 28 28 29 29 30 30 31 31 32 33 33 34 34 35 36 37 37 38 39 40 40 40 40 40 40 40 41 41 42 43 44 44 45 45 46
27 26 25 24 24 23 22 21 22 21 20 20 22 24 27 28 27 27 26 27 29 29 27 26 24 23 24 25 27 27 26 24 25 25 25 24 23 22 21 21 21 22 22 24 25 26 27 28 28 28 29 29 30 30 30 31 31 32 33 33 34 34 35 36 37 37 38 39 40 40 41 40 40 41 41 42 42 43 43 44 44 45 45 46 46
28 27 26 26 25 24 23 23 22 22 21 21 21 23 25 27 28 28 27 25 24 24 23 23 24 26 28 29 29 28 27 26 27 26 25 25 24 23 23 23 23 24 25 26 27 28 29 29 30 30 30 30 30 31 31 31 32 32 33 33 34 35 35 36 37 38 39 39 40 41 41 42 42 43 43 43 44 44 44 44 44 44 44 44 44
29 28 28 28 27 25 24 23 23 23 23 22 22 24 26 27 28 30 29 27 25 24 23 23 24 27 28 26 26 27 28 28 28 27 26 25 25 25 25 25 25 26 27 28 30 31 31 31 31 31 31 31 31 31 31 32 32 33 33 34 35 36 37 37 39 39 40 41 42 43 43 43 44 44 44 44 44 44 44 44 43 44 44 44 44
31 30 29 29 28 27 26 24 23 23 24 23 23 25 27 28 29 30 31 30 28 27 27 27 27 27 28 26 26 28 29 29 28 27 27 27 27 27 26 26 27 28 29 30 32 32 33 32 31 31 31 31 31 32 32 32 33 34 35 36 37 38 39 40 41 42 43 44 44 45 45 45 44 44 44 44 43 43 43 43 43 43 43 44 44
34 34 32 31 30 29 28 26 25 24 24 23 24 25 27 29 30 31 32 32 31 30 29 29 29 29 29 29 30 30 30 29 29 29 29 28 28 27 27 27 28 30 31 32 33 33 32 31 31 31 31 31 32 32 33 34 35 36 36 37 39 40 41 43 43 44 45 45 45 45 45 44 44 44 43 42 42 42 42 42 42 42 43 44 45
39 39 38 36 33 32 31 30 29 28 27 25 26 27 28 28 29 31 32 33 34 34 31 28 28 30 30 31 32 32 31 31 31 30 30 29 27 27 28 29 30 32 33 33 33 32 31 30 31 31 31 32 32 33 34 35 36 37 38 39 40 42 43 44 45 45 45 45 45 44 43 43 42 41 40 40 40 41 41 41 42 42 43 44 45
43 42 41 40 38 36 34 33 33 32 31 29 29 29 30 30 30 30 31 32 34 36 35 30 27 28 30 32 32 32 31 31 32 31 29 28 28 29 30 31 32 33 33 32 32 31 31 30 30 31 31 32 32 33 35 36 37 39 40 41 42 42 43 43 43 43 43 42 41 40 39 38 38 38 38 39 39 40 41 42 42 43 43 44 45
48 47 46 44 43 41 39 37 36 35 34 33 32 32 32 33 32 31 32 32 33 35 37 37 33 31 31 32 32 32 33 34 32 31 30 30 31 31 32 33 33 33 32 32 31 31 31 31 31 31 32 33 33 35 36 38 40 41 41 42 41 40 40 39 39 38 37 36 35 34 34 34 35 36 38 39 40 41 41 42 43 43 44 45 45
51 51 51 50 48 47 46 44 41 39 38 37 36 36 36 36 36 35 34 34 35 36 37 38 39 37 36 35 35 36 37 36 34 34 34 33 32 33 33 33 32 32 32 32 32 32 32 32 32 33 34 34 35 37 38 40 41 41 40 39 38 37 36 35 34 33 32 32 31 32 33 34 36 37 38 39 40 41 42 43 43 44 44 45 46
50 51 52 52 51 51 50 49 47 44 43 42 42 41 41 40 39 38 38 38 39 39 40 41 41 41 40 39 40 40 39 38 37 37 36 34 33 33 31 30 30 31 32 34 34 34 33 33 33 34 34 35 36 37 38 39 38 38 37 36 35 34 33 32 31 30 30 30 31 33 34 35 36 37 38 39 40 41 42 43 44 44 44 44 44
48 48 49 50 50 50 50 49 49 49 48 48 47 46 46 45 44 42 42 41 41 42 43 43 44 45 45 44 44 43 42 41 40 38 36 35 33 30 29 28 29 31 33 34 34 34 33 32 32 32 33 34 35 36 36 36 35 35 34 33 32 31 30 29 28 28 29 31 32 33 34 35 36 37 38 39 40 40 41 42 43 43 43 42 40
47 47 48 48 48 48 47 47 47 49 50 52 52 51 49 48 47 45 45 44 45 46 46 45 45 47 49 49 48 47 45 43 40 36 34 32 30 28 28 28 29 30 31 31 31 30 30 30 31 31 31 32 33 34 34 34 33 32 31 30 29 27 26 26 27 28 29 31 32 33 34 35 36 37 38 39 39 39 39 40 40 39 38 36 32
48 47 47 47 46 45 45 45 45 45 48 51 54 54 53 51 49 47 46 46 46 47 48 48 47 46 46 44 44 45 45 43 38 32 28 28 28 28 26 26 27 28 29 29 29 30 30 30 30 30 30 31 31 32 32 32 30 28 27 25 25 25 25 26 27 28 29 30 32 33 34 35 36 37 37 38 38 37 36 36 35 33 31 27 22
50 48 46 46 45 44 44 44 44 44 44 46 50 53 55 54 52 50 49 47 45 44 44 43 41 39 39 38 38 38 39 38 33 27 26 27 27 25 24 25 27 29 30 31 30 30 30 29 29 28 28 29 29 30 29 27 25 23 22 22 23 24 24 25 26 27 29 30 31 33 34 35 35 35 35 35 35 33 31 29 28 26 23 19 16
47 47 46 45 45 44 44 43 43 43 43 44 45 49 52 54 54 53 52 50 49 48 46 43 39 35 34 35 34 31 29 28 26 24 24 25 24 24 25 27 28 30 30 30 29 28 28 27 26 26 27 27 28 27 24 22 20 20 20 21 22 23 23 25 26 27 28 30 31 32 33 33 34 34 33 32 30 27 25 23 21 20 17 15 16
38 42 43 44 43 43 43 43 42 42 42 42 43 44 46 49 52 53 54 52 49 47 47 47 44 38 33 32 31 28 26 25 25 24 24 24 24 25 26 27 27 28 28 27 26 26 25 25 25 26 26 26 24 21 18 17 18 19 19 20 21 22 23 24 25 26 28 29 30 30 31 32 32 32 30 27 24 21 19 18 18 17 16 17 17
31 33 36 39 41 41 41 41 41 41 41 41 41 42 42 43 46 49 52 53 50 45 42 42 42 40 37 34 32 29 27 25 25 25 24 24 23 24 24 25 26 26 26 25 24 24 24 24 25 25 23 20 18 16 16 16 17 18 18 19 20 21 21 23 24 26 27 28 28 29 30 31 31 30 27 23 19 17 17 17 17 16 17 17 16
28 28 30 32 36 38 39 39 39 39 39 39 39 39 40 40 40 42 44 46 47 47 44 41 39 38 38 38 36 32 29 28 28 27 25 23 22 22 22 23 24 24 24 23 23 22 23 24 24 21 17 16 15 15 16 16 17 17 17 18 19 19 20 22 24 25 26 26 26 28 30 31 31 29 25 20 17 15 16 16 17 16 16 15 15
25 26 26 27 30 33 36 38 38 37 37 37 37 36 37 38 38 37 37 37 38 40 42 42 40 37 38 40 39 35 32 31 30 27 23 21 20 20 21 22 22 22 22 22 21 22 23 23 19 15 13 13 14 14 15 16 16 16 16 17 17 18 20 22 23 23 23 23 25 27 29 30 30 28 24 19 16 16 16 16 16 16 15 14 14
21 22 22 23 25 27 30 34 36 35 34 35 36 36 36 36 37 36 35 35 34 33 34 36 39 39 38 38 38 37 35 31 27 23 19 17 18 19 20 21 21 21 21 20 21 22 22 19 15 13 13 13 14 14 15 15 14 14 15 16 16 18 19 21 22 21 22 22 24 26 27 28 29 27 23 19 16 16 16 16 16 14 14 14 15
20 19 19 19 21 23 24 27 31 33 33 33 35 36 36 35 35 35 35 35 35 33 29 27 30 34 36 37 38 38 33 26 20 17 15 16 18 19 20 20 20 20 20 20 20 21 19 15 13 13 13 14 14 14 13 13 12 13 14 15 16 17 19 19 20 20 21 22 23 25 26 28 28 27 24 20 17 16 16 17 16 15 14 14 14
19 17 15 16 17 18 20 22 25 28 31 33 34 35 35 35 34 34 34 35 35 35 31 27 24 24 28 30 30 28 23 17 14 14 15 17 19 19 19 20 20 19 18 18 19 18 15 13 12 13 13 14 13 12 11 11 11 12 13 14 15 16 17 17 18 19 20 21 22 23 25 27 27 26 23 20 18 17 16 16 17 16 15 13 12
17 13 11 12 13 14 15 18 20 22 27 31 33 33 34 34 33 33 33 34 34 34 33 30 27 26 27 27 23 18 16 15 14 15 17 18 19 19 18 18 17 16 16 16 16 14 13 13 12 13 13 13 11 10 10 10 10 11 12 13 13 14 15 16 16 18 20 21 22 22 23 25 26 25 23 21 19 17 16 16 16 15 14 12 11
17 10 7 8 10 11 11 13 15 17 21 26 30 31 32 32 31 31 31 32 33 32 31 30 29 29 28 26 22 18 16 14 13 15 18 18 18 18 17 16 15 15 15 14 14 14 13 12 13 13 12 10 9 8 9 8 8 10 12 12 12 12 14 14 15 17 19 20 21 21 22 23 24 24 23 21 19 17 16 15 14 14 13 12 12
19 10 4 4 6 8 8 9 11 13 16 20 25 28 29 29 29 29 29 29 29 28 29 29 28 26 23 20 17 16 15 15 15 17 18 17 16 15 15 14 14 14 14 14 14 13 12 12 13 13 10 8 8 8 7 7 7 9 10 10 10 11 12 13 15 17 18 19 20 20 21 22 23 23 23 22 20 18 16 14 14 14 14 13 12
20 13 6 2 1 3 4 4 7 9 12 16 20 24 25 26 26 26 27 26 25 25 25 26 25 25 25 24 21 18 16 16 16 16 17 17 15 14 14 14 15 14 14 13 13 12 12 13 13 10 8 7 8 7 6 5 7 9 9 9 9 10 11 13 14 16 17 18 19 19 20 21 22 23 23 22 21 19 18 15 14 14 14 13 12
21 18 14 10 7 3 2 3 4 6 9 12 16 20 22 23 24 24 25 24 23 23 22 21 22 23 24 23 21 17 15 14 14 15 15 16 16 15 15 16 15 14 13 13 12 12 13 12 10 8 7 8 8 6 5 5 6 8 8 8 8 9 10 12 14 15 16 17 18 18 19 20 21 22 23 22 21 20 19 17 15 14 13 12 12
20 19 17 14 11 8 6 5 5 6 8 10 13 17 19 20 20 20 21 20 21 21 21 21 22 21 18 15 15 15 14 14 14 14 15 16 17 16 16 16 14 13 12 12 12 12 12 10 8 7 8 8 7 5 5 5 6 7 7 7 8 9 10 12 14 15 16 17 18 18 19 19 20 21 22 23 22 21 20 19 18 16 14 13 12
20 19 17 15 13 11 9 8 8 9 11 12 13 14 16 16 16 17 17 17 18 19 20 22 23 20 15 13 13 14 13 13 14 14 15 15 16 15 15 14 13 12 12 11 11 11 10 8 8 8 8 8 6 5 5 5 5 6 6 7 8 9 11 12 14 15 17 17 18 19 19 20 20 21 22 23 24 23 22 22 21 20 17 14 12
18 17 17 17 15 14 12 10 10 11 13 15 16 16 16 16 15 15 13 12 14 17 20 21 21 18 14 13 14 14 14 14 13 13 13 14 14 14 14 13 12 11 11 10 10 9 8 8 9 9 8 7 6 5 5 5 5 5 6 7 9 10 12 13 14 16 17 18 18 19 20 20 21 22 22 24 25 25 24 23 22 22 20 16 13
21 18 16 15 14 14 14 13 12 12 13 16 18 18 18 16 15 13 10 9 14 18 20 20 19 16 14 16 17 17 16 15 14 13 12 13 13 13 12 11 10 10 10 9 9 8 8 8 9 8 7 6 5 4 5 5 5 5 6 7 9 10 12 13 14 16 17 18 19 20 20 21 21 22 22 23 25 25 25 24 23 23 21 19 16
23 21 18 16 14 14 14 14 14 14 15 16 18 19 17 15 14 13 11 12 16 19 18 16 15 14 15 17 18 17 15 14 13 13 12 13 13 11 10 10 10 9 8 8 8 7 8 8 7 6 5 5 4 4 4 5 5 6 7 8 9 11 12 13 14 15 16 18 19 20 21 21 22 22 22 23 24 25 25 25 24 23 22 20 18
21 22 21 19 17 16 16 15 15 15 15 15 16 16 15 13 13 12 11 11 13 15 15 16 16 17 16 16 15 14 14 13 13 12 12 12 10 9 9 10 9 8 7 7 7 7 7 6 5 5 4 3 3 3 3 4 5 6 7 8 9 10 12 13 14 15 16 17 19 20 21 21 22 22 22 22 23 24 25 25 24 23 23 21 19
19 20 20 20 19 19 18 18 18 18 18 17 16 15 14 12 12 13 13 14 16 17 19 21 21 20 17 15 14 14 13 12 11 11 10 9 8 9 10 9 8 7 7 7 6 6 6 5 4 4 3 3 2 3 3 4 5 6 8 8 9 10 11 12 14 15 16 18 19 20 21 21 22 22 23 23 22 23 24 25 24 23 23 22 20
Wind_Direction
273 292 314 344 353 355 358 315 279 245 195 205 217 191 172 176 181 169 164 164 161 160 157 154 153 151 150 149 147 146 146 145 142 138 134 132 130 127 125 120 113 102 75 29 356 335 318 288 268 265 264 266 267 265 264 262 260 262 269 278 286 292 296 298 299 300 303 307 309 311 312 312 313 314 315 316 317 319 319 319 319 319 317 316 314
277 296 315 346 356 352 343 305 256 214 178 171 179 173 169 179 182 174 172 172 172 173 171 170 170 168 168 168 165 165 164 163 162 161 160 159 159 162 167 174 186 202 226 252 264 269 273 274 272 271 271 272 275 276 274 273 272 273 275 280 284 287 288 290 293 297 300 303 305 306 307 308 308 308 309 310 311 311 311 311 311 311 310 310 309
288 302 308 331 347 334 325 308 258 229 196 177 176 174 176 184 184 182 182 183 184 185 185 187 187 186 187 188 184 180 178 179 182 185 187 185 182 183 187 195 210 221 231 243 253 260 265 268 268 269 272 275 280 284 285 284 282 282 284 288 291 292 292 293 296 300 304 306 307 308 308 308 308 307 306 305 305 304 304 304 304 304 304 303 303
302 309 309 316 327 318 310 306 271 244 223 198 187 185 185 189 193 192 191 194 196 196 198 200 201 203 205 205 203 198 192 192 198 202 203 202 201 202 204 214 228 240 248 253 258 263 267 269 268 268 270 272 275 279 283 288 289 289 291 295 298 299 300 301 303 305 307 308 309 310 310 310 310 309 308 307 306 305 303 303 302 302 301 300 300
307 308 306 303 301 298 293 291 275 245 234 218 202 197 195 196 199 200 200 203 205 207 209 210 212 214 215 216 216 212 206 205 212 217 216 216 218 217 220 229 242 254 262 266 267 269 272 272 269 266 268 272 275 277 280 284 287 291 294 297 300 301 303 304 304 305 306 307 308 309 309 310 310 310 309 309 309 308 307 305 304 303 302 301 300
303 303 300 294 287 280 276 275 267 239 230 225 216 210 207 206 206 206 207 209 213 217 217 218 222 224 223 221 219 219 218 216 220 223 222 225 228 229 231 239 250 259 267 273 277 278 278 276 271 267 267 270 274 278 281 284 286 289 292 294 296 297 298 301 303 304 305 306 306 306 307 309 310 310 309 308 308 308 307 306 305 304 304 303 301
304 303 299 292 283 274 267 265 259 240 227 225 224 221 220 219 215 211 211 213 218 222 223 224 229 233 236 231 225 225 224 221 224 227 224 224 229 232 236 243 252 261 268 273 278 280 279 277 274 269 269 271 274 277 280 283 286 288 291 293 294 295 296 299 302 303 303 303 304 304 305 307 308 308 307 308 308 308 307 306 305 305 304 303 302
305 305 303 295 284 274 267 261 256 247 233 227 227 229 230 226 219 216 217 218 221 226 227 227 229 233 238 239 235 231 228 225 226 226 224 224 226 228 235 247 256 261 265 266 268 272 272 272 270 266 265 266 268 272 275 278 282 285 287 289 289 291 293 295 297 298 299 299 300 301 302 304 304 304 304 305 306 307 307 306 305 304 303 302 300
307 306 303 295 284 273 268 264 258 253 246 238 235 236 237 231 220 217 219 221 223 228 230 230 231 232 234 239 241 238 234 230 225 223 223 222 221 225 235 248 256 258 259 259 263 269 270 269 268 265 263 263 264 267 271 274 278 281 283 284 285 287 289 290 292 294 294 296 297 298 299 299 299 299 301 302 303 303 303 303 303 303 303 301 300
301 299 296 291 284 276 270 266 261 257 252 249 246 246 248 244 228 219 219 223 225 227 230 231 233 235 235 238 245 246 242 240 236 234 232 225 221 228 238 242 248 252 255 258 262 267 270 272 272 271 270 270 270 271 272 274 277 280 281 282 284 285 287 289 291 292 294 296 297 297 297 296 297 299 301 301 301 302 302 302 302 302 302 302 301
290 288 286 284 282 279 274 269 265 260 255 255 256 256 257 258 244 225 220 222 225 227 230 231 234 242 246 248 251 252 252 253 248 240 235 228 225 232 236 238 244 249 253 257 259 263 269 275 279 280 280 280 278 278 279 279 280 281 281 282 284 286 288 290 291 292 293 295 295 294 294 295 299 303 304 301 301 301 302 302 302 302 302 301 301
282 278 274 275 277 278 277 274 271 268 264 262 262 262 261 262 260 241 228 226 228 231 236 237 239 246 250 249 247 244 242 242 234 223 219 220 222 226 229 236 245 249 253 258 262 269 276 282 286 288 288 288 287 286 285 284 284 284 284 285 287 288 289 290 291 292 294 293 293 292 292 295 301 306 304 300 300 300 301 301 301 301 301 301 300
280 274 265 264 267 271 275 276 276 275 271 267 268 270 268 262 261 258 242 230 226 229 234 237 239 240 234 227 226 218 207 207 210 211 213 214 218 224 230 238 247 252 259 266 272 278 283 287 291 292 292 291 290 289 287 286 286 286 286 287 288 289 290 290 291 292 294 294 294 294 295 298 303 306 305 301 299 299 300 300 300 300 299 300 300
280 277 270 264 262 263 266 269 273 275 273 273 274 274 270 260 255 253 244 228 221 220 224 228 229 225 220 220 217 207 200 202 207 210 214 217 222 229 236 243 250 257 265 272 277 282 285 288 290 291 291 291 290 289 288 287 286 286 286 287 288 289 289 290 291 292 294 295 295 295 298 301 303 304 304 302 299 299 299 299 299 299 299 299 300
275 276 277 275 270 266 263 260 260 264 267 271 274 272 266 258 253 248 240 231 224 219 217 219 220 218 220 222 215 207 205 210 215 218 222 226 230 234 239 246 255 264 271 275 278 282 284 287 288 288 288 288 288 289 289 289 289 288 287 287 287 288 288 289 291 293 294 294 294 296 298 299 300 300 300 299 298 299 299 299 299 299 299 299 299
266 268 272 274 273 270 266 261 255 254 258 264 269 270 265 257 251 246 238 230 226 222 220 221 222 221 222 222 218 214 213 214 218 223 228 231 236 240 245 254 263 270 275 277 280 283 285 286 286 285 285 285 286 287 287 288 289 289 288 288 288 288 289 290 291 292 292 292 293 294 295 296 296 297 297 296 297 299 299 298 298 298 298 298 298
262 263 265 266 268 266 264 262 261 260 262 264 267 269 265 257 252 248 239 229 225 223 221 222 224 223 223 223 220 217 217 219 223 227 232 236 241 245 251 258 265 271 275 278 281 283 284 284 284 284 284 284 284 285 285 286 286 287 287 287 288 289 290 290 291 291 291 292 293 293 294 294 295 295 295 296 297 297 297 297 298 298 298 299 298
264 265 264 262 261 260 258 261 266 268 269 270 271 272 269 262 256 255 252 242 230 221 216 216 219 222 224 224 220 219 220 224 227 230 234 239 244 249 255 261 266 270 273 276 279 281 282 283 284 284 284 284 284 285 286 287 287 288 288 289 289 289 289 289 289 290 290 291 291 292 292 293 293 294 295 295 296 296 296 297 298 299 299 299 299
265 266 265 261 257 257 259 263 266 268 270 271 271 271 270 265 259 257 258 252 239 227 219 215 217 224 225 219 215 218 224 227 229 232 236 240 245 250 255 259 264 268 271 275 278 280 281 282 283 284 284 284 285 286 287 288 289 290 290 289 288 287 287 287 287 288 288 289 289 290 291 292 293 294 294 295 295 296 297 298 299 300 299 299 299
266 265 264 263 261 261 264 264 265 266 268 267 266 266 265 262 258 255 253 249 241 233 226 220 218 225 228 222 216 220 226 228 230 234 237 241 246 250 254 259 264 268 273 276 278 280 281 283 283 283 283 283 284 284 285 286 287 288 288 287 287 287 286 287 287 287 288 289 290 291 292 293 293 294 294 295 296 297 298 299 300 300 299 299 299
268 267 266 266 265 265 264 262 259 261 262 261 260 259 259 257 255 253 250 246 240 232 226 222 221 224 228 228 224 224 227 230 233 236 239 242 247 251 256 262 267 271 274 277 279 282 284 284 284 283 283 283 283 283 284 284 285 286 286 286 286 286 286 287 288 288 289 291 291 292 292 293 293 293 294 295 296 297 298 298 298 298 298 298 298
268 268 267 265 263 262 261 259 256 255 254 254 253 254 254 253 252 251 249 246 241 235 228 223 222 224 226 227 227 227 230 233 235 237 240 244 248 254 259 265 270 273 275 278 280 283 284 285 285 284 283 283 283 284 285 285 286 286 287 287 287 287 287 287 288 289 290 290 291 291 292 292 292 293 293 294 295 296 297 297 296 296 296 296 296
264 264 264 263 261 258 257 257 257 256 253 250 249 250 251 251 251 250 250 249 247 243 236 227 222 222 222 224 227 229 231 234 236 239 242 246 251 257 264 269 272 274 277 279 282 284 285 287 288 286 285 284 284 285 285 285 286 286 286 286 286 286 286 287 288 289 289 290 290 290 290 291 291 292 293 294 294 295 294 294 294 294 293 293 294
260 260 260 259 258 257 255 255 255 255 252 248 245 245 246 248 249 248 249 250 249 247 245 242 234 227 225 227 229 231 233 235 237 240 244 250 256 262 267 271 274 277 279 281 283 285 288 290 290 288 286 285 285 285 285 285 285 286 286 285 285 286 287 288 289 289 289 290 290 290 290 291 291 292 292 293 293 293 292 292 292 292 292 291 291
258 257 256 254 254 254 254 253 252 251 250 246 242 241 242 244 246 248 249 250 250 248 248 249 246 241 235 232 232 232 233 233 235 240 246 252 258 263 267 271 274 277 279 281 284 287 289 291 291 288 286 285 284 285 285 285 286 286 287 288 289 290 290 290 290 290 290 290 290 291 291 291 291 291 292 292 292 292 292 292 291 291 290 290 289
257 256 254 253 251 250 250 250 249 248 247 245 241 239 239 240 243 247 250 251 251 250 249 249 249 247 243 238 234 232 232 232 235 240 246 251 257 261 266 270 274 277 281 284 287 290 291 291 288 285 284 283 284 284 284 285 286 287 289 290 291 292 291 291 290 291 291 291 291 291 291 291 291 290 291 291 292 292 292 292 291 291 291 291 290
257 256 255 254 252 250 248 247 246 245 245 243 241 239 239 240 240 243 247 250 251 251 250 248 247 246 243 239 234 231 231 234 238 241 245 250 255 260 264 270 275 280 285 288 289 291 291 288 284 282 283 283 284 285 286 287 288 290 291 291 291 291 290 290 290 290 291 291 290 290 290 290 290 291 292 292 293 294 294 293 293 293 293 293 294
260 258 256 255 254 253 250 247 244 242 241 241 241 240 241 242 240 239 242 246 248 249 248 245 245 244 242 237 233 231 232 235 239 242 245 249 254 259 265 272 279 284 288 289 289 287 286 283 282 283 284 285 286 286 288 289 290 291 291 290 289 289 288 288 288 289 289 289 290 290 291 293 294 294 295 295 296 296 296 296 295 295 296 297 299
263 261 259 257 256 254 253 251 247 242 239 239 240 240 241 241 239 237 238 240 242 243 243 242 241 240 238 236 236 236 238 239 240 241 243 247 254 261 267 273 280 285 288 288 286 285 284 284 285 286 286 286 287 287 289 290 290 289 288 287 286 286 287 287 288 289 290 291 293 294 295 296 297 298 299 299 300 300 299 298 297 298 299 301 304
263 262 260 259 257 256 254 252 250 246 241 238 238 238 239 240 239 237 236 236 236 236 236 235 233 232 232 234 236 238 239 238 238 239 242 247 255 262 267 274 280 285 288 288 287 287 288 288 287 287 286 286 286 287 288 288 287 285 284 283 284 285 287 288 290 292 294 296 297 297 298 300 302 303 303 303 302 302 301 300 299 300 302 305 308
264 261 259 258 256 255 253 251 249 248 245 241 239 238 238 239 239 238 238 237 237 237 235 234 233 232 230 227 227 228 230 231 233 237 242 249 258 265 271 278 283 286 288 288 288 288 288 288 287 286 286 285 286 286 285 283 280 280 280 282 284 286 288 291 294 296 297 298 299 301 303 305 307 308 307 306 304 303 302 300 300 302 305 307 308
264 260 258 256 254 252 252 250 248 246 244 243 240 238 238 238 238 239 239 239 240 241 241 243 246 246 241 234 229 226 228 232 236 240 245 252 260 268 273 278 283 286 288 289 288 288 287 287 286 285 284 285 285 283 280 276 276 278 281 284 287 290 293 296 297 298 299 301 304 306 308 310 312 313 312 309 307 305 304 302 303 304 304 302 303
270 263 258 255 252 251 249 248 247 245 242 240 240 238 238 238 238 239 240 241 242 242 243 245 248 250 250 247 243 239 238 240 241 243 247 254 261 268 274 280 284 286 288 289 288 288 287 286 285 285 285 284 282 279 277 276 277 280 284 288 291 294 295 297 299 301 303 306 308 310 314 317 319 319 317 314 311 309 307 307 307 305 301 299 301
280 271 263 256 251 249 248 247 246 244 241 238 238 237 236 237 238 239 240 242 245 246 246 246 247 248 248 249 249 246 243 242 243 246 250 256 262 269 275 280 283 286 288 288 289 289 287 285 284 285 283 279 274 273 276 278 280 284 288 291 293 295 297 301 303 305 307 309 312 317 322 325 326 325 323 319 315 313 313 313 313 309 305 304 303
284 278 271 262 253 248 245 245 245 243 240 237 236 235 234 234 236 238 239 242 245 247 247 248 247 246 246 247 247 245 242 242 245 247 249 254 262 269 275 280 284 285 286 287 288 286 284 284 284 282 276 271 270 274 277 280 283 287 289 291 294 298 303 305 306 307 309 313 319 325 329 330 331 331 329 324 319 316 317 319 318 315 310 306 302
292 284 277 270 261 252 245 242 242 242 239 235 233 233 232 231 233 235 237 239 242 244 245 245 244 244 244 241 238 237 238 239 240 240 242 250 261 270 276 279 281 281 281 283 282 281 282 284 281 272 267 270 274 276 278 281 284 287 289 293 299 304 306 306 307 309 313 319 326 331 333 334 335 334 331 325 320 318 318 319 319 316 311 308 308
300 291 281 273 266 258 249 243 239 239 237 232 230 231 230 230 230 231 232 234 237 238 239 239 239 241 241 237 232 231 231 229 227 230 239 252 264 271 275 276 276 276 277 277 276 278 282 281 273 264 267 272 274 275 278 280 283 288 293 299 304 306 307 307 310 315 319 323 329 333 337 338 337 335 333 327 320 317 317 317 317 316 313 312 313
302 295 286 277 267 258 252 245 239 236 234 231 229 228 229 230 230 229 228 231 234 235 233 231 231 233 233 228 224 222 219 217 219 230 246 258 264 267 269 270 270 271 270 270 272 275 275 270 263 265 270 270 270 271 274 278 283 291 297 303 305 306 307 311 316 320 323 326 330 335 339 341 340 338 335 330 323 319 317 316 316 317 314 312 310
308 296 285 280 270 257 249 244 238 234 230 228 227 226 227 228 229 229 228 229 230 232 234 231 229 228 223 216 211 210 212 218 230 242 250 256 258 260 263 264 264 265 265 267 270 271 266 260 262 265 264 262 263 266 270 277 286 294 299 302 304 306 310 316 323 326 328 329 332 335 339 341 342 340 337 333 327 322 319 318 317 315 311 306 306
327 306 283 277 274 261 247 239 236 232 228 226 224 224 225 225 225 227 229 229 230 232 234 232 234 238 234 225 219 221 230 239 244 246 249 251 254 257 259 258 258 259 260 262 264 262 258 257 258 256 253 252 255 260 268 278 288 294 297 300 304 309 315 322 330 334 334 334 335 336 338 341 343 343 341 338 333 327 323 321 319 315 310 307 307
348 329 289 275 276 269 254 239 232 229 226 223 221 221 222 222 222 224 227 229 231 233 233 234 238 238 232 227 226 229 232 235 238 240 244 248 251 254 252 248 249 254 254 253 255 256 253 248 245 243 242 243 248 256 265 276 286 292 294 300 308 315 320 329 338 341 340 339 338 338 340 342 344 345 344 344 341 336 330 327 325 322 316 309 307
2 349 301 268 272 267 256 237 225 222 222 220 218 217 217 218 218 220 223 226 229 230 231 234 235 225 213 215 228 230 226 228 231 232 238 248 251 246 239 240 247 250 247 246 250 248 239 233 233 233 232 233 242 250 259 272 283 288 293 304 315 321 326 337 345 346 344 343 341 340 341 344 346 347 347 347 346 343 338 333 331 329 322 312 310
20 23 35 47 300 260 239 212 204 209 214 214 211 211 212 212 213 215 218 221 224 226 227 231 233 226 222 231 239 233 223 227 231 231 240 249 246 235 231 239 248 246 241 240 240 231 222 223 225 222 221 229 237 243 253 269 281 287 295 309 321 327 334 345 350 350 348 346 344 343 344 346 348 350 351 351 350 348 343 337 330 326 322 317 314
32 39 47 53 56 63 98 140 169 188 196 198 198 201 204 205 207 209 210 212 216 219 220 221 221 217 218 224 227 224 224 229 231 233 241 245 240 232 233 240 244 240 233 229 224 215 214 217 215 212 218 227 231 235 250 268 278 286 296 313 328 336 343 351 354 353 351 350 349 348 348 349 351 353 354 354 354 352 349 344 335 325 318 315 313
40 43 46 50 56 65 76 96 123 143 155 167 177 185 191 195 198 200 202 205 208 210 210 209 207 203 202 207 216 222 226 229 231 233 236 236 235 235 237 237 234 225 218 214 210 209 210 210 207 209 218 224 227 235 250 263 272 282 299 322 337 344 350 356 357 355 354 354 354 354 354 354 355 356 357 357 357 357 355 353 348 338 325 315 311
48 50 51 52 56 64 74 90 107 121 131 140 151 162 170 175 179 182 187 196 201 202 204 205 202 198 199 209 217 218 221 227 232 231 227 226 229 231 230 225 217 208 204 205 207 208 207 205 206 211 217 221 227 238 251 261 273 287 311 333 343 349 356 0 359 357 356 357 358 358 359 359 359 359 0 1 1 1 359 357 354 348 339 325 313
47 52 53 53 56 61 70 84 100 115 126 132 137 144 150 155 161 170 182 195 198 199 200 198 191 187 196 210 213 213 217 220 218 215 215 217 218 216 212 208 202 198 199 204 208 208 205 203 206 212 217 220 225 240 257 270 283 302 324 338 346 353 358 1 360 357 356 357 359 1 2 2 2 2 2 3 4 4 2 360 356 352 347 338 325
41 47 51 54 58 63 69 79 93 111 124 130 134 141 146 148 151 157 164 167 170 175 179 177 173 178 194 203 203 204 206 205 205 210 212 209 202 199 199 197 195 195 201 207 208 205 202 203 206 212 216 219 227 248 267 281 297 314 329 340 347 352 356 358 358 357 356 357 359 2 3 4 5 4 3 5 6 5 3 2 359 355 352 348 340
42 45 49 55 61 64 67 73 86 104 118 127 134 141 144 143 144 147 145 141 145 152 157 161 167 181 192 194 193 195 197 201 208 213 206 196 192 193 193 192 194 199 205 208 205 201 202 204 208 211 213 219 234 255 272 290 309 321 331 339 345 349 352 354 353 354 355 357 358 1 3 4 6 6 5 5 6 6 5 3 1 359 357 354 350
44 46 50 56 64 72 77 81 88 99 110 119 127 133 135 135 140 145 146 140 139 144 151 160 171 180 186 189 195 202 206 208 209 201 190 186 190 191 190 192 197 201 202 201 199 199 201 204 206 208 214 222 238 257 281 303 316 323 330 336 341 346 347 347 348 351 354 355 357 360 2 2 4 7 8 7 7 7 6 5 3 1 359 358 356
43 46 49 53 59 67 78 88 94 100 105 110 114 118 123 128 134 136 135 134 137 146 157 166 174 180 186 194 204 211 208 200 191 182 179 186 191 189 189 193 196 195 194 193 192 193 195 197 201 210 218 229 247 271 299 313 319 323 329 334 339 341 341 342 345 349 352 353 355 357 359 360 2 5 8 9 9 8 8 8 6 4 1 360 0
Height
3120 3120 3121 3122 3122 3121 3121 3121 3120 3119 3120 3120 3121 3124 3128 3131 3133 3134 3135 3136 3137 3138 3139 3139 3139 3140 3140 3140 3140 3140 3141 3141 3141 3142 3142 3143 3143 3144 3145 3145 3146 3146 3147 3147 3147 3148 3148 3148 3149 3149 3149 3149 3149 3150 3149 3149 3149 3148 3148 3147 3147 3147 3147 3146 3146 3146 3146 3145 3145 3144 3144 3144 3143 3142 3142 3141 3141 3140 3140 3139 3139 3138 3138 3138 3137
3119 3120 3120 3121 3121 3120 3120 3119 3119 3120 3120 3120 3121 3124 3127 3129 3132 3133 3134 3135 3136 3137 3138 3138 3139 3139 3139 3139 3140 3140 3140 3141 3141 3141 3142 3142 3142 3143 3143 3144 3145 3145 3146 3146 3146 3147 3147 3147 3147 3147 3148 3148 3148 3148 3148 3148 3148 3148 3147 3147 3147 3146 3146 3145 3145 3145 3144 3144 3144 3143 3143 3142 3142 3141 3141 3140 3139 3139 3138 3138 3137 3137 3136 3135 3135
3119 3119 3119 3120 3120 3119 3118 3118 3119 3120 3121 3121 3122 3124 3126 3128 3130 3131 3133 3134 3134 3135 3136 3137 3138 3138 3138 3139 3139 3139 3139 3140 3140 3140 3140 3141 3141 3142 3142 3143 3143 3144 3144 3145 3145 3145 3145 3145 3145 3146 3146 3146 3146 3146 3146 3146 3147 3147 3146 3146 3146 3145 3145 3145 3144 3144 3143 3143 3142 3142 3142 3141 3141 3140 3140 3139 3139 3138 3137 3136 3135 3135 3134 3133 3132
3117 3118 3118 3119 3119 3119 3118 3118 3119 3120 3121 3121 3123 3124 3126 3127 3128 3130 3131 3132 3133 3134 3135 3136 3136 3137 3137 3137 3138 3138 3138 3138 3138 3138 3139 3139 3140 3140 3141 3141 3142 3142 3142 3143 3143 3143 3143 3144 3144 3144 3144 3144 3144 3144 3144 3144 3144 3144 3144 3144 3144 3144 3143 3143 3143 3143 3142 3141 3141 3140 3140 3140 3140 3139 3139 3138 3137 3136 3135 3134 3133 3132 3132 3131 3130
3116 3116 3117 3117 3118 3118 3117 3117 3118 3119 3120 3121 3122 3123 3124 3126 3127 3128 3129 3130 3131 3132 3133 3134 3135 3135 3136 3136 3136 3136 3136 3136 3136 3137 3137 3138 3138 3139 3139 3140 3140 3140 3140 3141 3141 3141 3141 3142 3142 3142 3142 3142 3142 3142 3142 3142 3142 3142 3142 3142 3141 3141 3141 3141 3141 3141 3140 3140 3139 3138 3138 3138 3138 3137 3137 3136 3135 3134 3133 3132 3131 3130 3129 3128 3127
3114 3115 3115 3116 3117 3117 3117 3117 3117 3118 3118 3119 3121 3122 3123 3124 3125 3126 3127 3128 3130 3130 3131 3132 3133 3134 3134 3134 3134 3134 3134 3134 3135 3135 3136 3137 3137 3138 3138 3138 3138 3138 3139 3139 3139 3139 3139 3139 3140 3140 3140 3140 3140 3140 3140 3140 3139 3139 3139 3139 3139 3139 3139 3139 3138 3138 3138 3137 3137 3136 3136 3135 3135 3134 3134 3133 3133 3132 3131 3130 3129 3128 3127 3126 3125
3113 3113 3113 3114 3115 3116 3116 3116 3116 3117 3117 3118 3118 3120 3121 3122 3123 3124 3125 3126 3127 3128 3129 3130 3130 3131 3132 3132 3132 3132 3132 3132 3133 3134 3134 3135 3135 3136 3136 3137 3137 3137 3137 3137 3137 3137 3137 3137 3138 3138 3138 3138 3138 3138 3138 3138 3138 3137 3137 3137 3136 3136 3136 3136 3136 3135 3135 3134 3133 3133 3133 3133 3132 3131 3130 3130 3129 3129 3128 3128 3127 3126 3125 3123 3122
3111 3111 3112 3112 3113 3114 3114 3115 3115 3115 3116 3116 3117 3117 3118 3119 3120 3122 3123 3124 3125 3126 3127 3128 3128 3128 3129 3129 3130 3130 3130 3131 3131 3132 3132 3133 3133 3134 3135 3135 3136 3136 3136 3136 3136 3136 3136 3136 3136 3136 3136 3136 3136 3136 3136 3136 3135 3135 3135 3134 3134 3134 3133 3133 3133 3132 3132 3131 3130 3129 3130 3129 3129 3128 3127 3126 3126 3125 3124 3124 3123 3123 3122 3121 3119
3108 3109 3109 3110 3110 3111 3112 3112 3112 3113 3114 3115 3115 3115 3115 3116 3117 3119 3120 3121 3122 3124 3124 3125 3125 3125 3125 3125 3126 3127 3127 3128 3128 3129 3129 3130 3131 3132 3133 3133 3134 3134 3134 3134 3134 3134 3134 3134 3134 3134 3134 3134 3133 3133 3133 3133 3133 3133 3132 3132 3131 3131 3130 3130 3129 3129 3128 3127 3126 3125 3125 3125 3125 3124 3124 3123 3122 3121 3121 3120 3119 3118 3118 3117 3116
3106 3106 3107 3107 3108 3108 3109 3109 3109 3111 3112 3112 3112 3112 3112 3113 3114 3115 3117 3118 3119 3119 3120 3121 3122 3122 3122 3123 3124 3123 3124 3125 3126 3126 3127 3128 3129 3130 3131 3131 3131 3132 3132 3132 3132 3132 3132 3132 3132 3132 3132 3132 3131 3131 3131 3130 3130 3130 3129 3128 3128 3127 3127 3126 3126 3125 3124 3123 3122 3121 3120 3120 3121 3121 3120 3119 3118 3117 3116 3115 3115 3114 3113 3113 3112
3104 3104 3105 3105 3105 3106 3106 3106 3107 3108 3108 3108 3108 3108 3109 3109 3110 3111 3112 3112 3113 3114 3115 3118 3119 3119 3120 3121 3120 3119 3121 3123 3123 3124 3125 3126 3127 3128 3128 3129 3129 3129 3130 3130 3130 3130 3130 3130 3130 3130 3130 3130 3129 3129 3129 3128 3128 3127 3126 3125 3124 3124 3123 3123 3122 3121 3120 3119 3118 3117 3116 3115 3116 3117 3116 3115 3114 3113 3112 3111 3110 3109 3108 3108 3107
3102 3102 3102 3103 3103 3103 3103 3103 3104 3105 3105 3105 3105 3104 3105 3105 3106 3107 3107 3107 3110 3113 3114 3115 3116 3116 3117 3118 3116 3115 3118 3119 3120 3121 3122 3122 3124 3125 3125 3126 3127 3127 3127 3128 3128 3128 3128 3128 3128 3128 3128 3127 3127 3127 3126 3125 3125 3124 3123 3122 3121 3120 3119 3119 3118 3117 3116 3115 3114 3113 3112 3111 3111 3112 3112 3110 3109 3108 3107 3106 3105 3104 3103 3102 3101
3099 3100 3100 3100 3101 3101 3101 3101 3101 3102 3102 3102 3101 3100 3100 3101 3103 3104 3103 3104 3107 3110 3110 3111 3112 3113 3114 3114 3113 3113 3114 3115 3117 3118 3119 3120 3121 3122 3123 3124 3124 3125 3125 3125 3125 3125 3125 3125 3125 3125 3125 3124 3124 3124 3123 3122 3121 3121 3120 3118 3117 3117 3116 3115 3114 3113 3112 3111 3110 3109 3108 3107 3107 3107 3107 3106 3105 3104 3103 3102 3100 3099 3098 3096 3096
3096 3096 3097 3097 3098 3098 3098 3098 3098 3099 3099 3099 3098 3097 3097 3098 3099 3100 3101 3102 3104 3105 3106 3107 3108 3109 3111 3111 3111 3111 3112 3113 3114 3115 3116 3117 3118 3119 3120 3121 3122 3123 3123 3122 3122 3122 3122 3122 3122 3122 3122 3121 3121 3121 3120 3119 3118 3117 3116 3115 3114 3113 3112 3111 3111 3110 3109 3108 3107 3105 3104 3103 3103 3102 3102 3101 3100 3099 3098 3097 3095 3093 3092 3091 3090
3093 3093 3093 3094 3094 3094 3095 3095 3095 3096 3096 3096 3096 3095 3095 3096 3096 3097 3098 3100 3101 3102 3103 3104 3105 3106 3107 3108 3109 3109 3110 3111 3112 3113 3114 3115 3116 3117 3118 3119 3119 3120 3120 3120 3120 3120 3120 3119 3119 3119 3119 3118 3118 3117 3117 3116 3115 3114 3113 3112 3111 3110 3109 3108 3107 3106 3105 3104 3103 3102 3101 3100 3099 3098 3097 3096 3095 3094 3092 3091 3089 3088 3086 3085 3084
3090 3090 3090 3090 3091 3091 3091 3091 3092 3092 3093 3093 3093 3093 3093 3094 3094 3094 3095 3096 3097 3098 3099 3101 3102 3103 3104 3105 3106 3107 3108 3108 3110 3111 3111 3113 3114 3115 3116 3116 3117 3117 3117 3117 3117 3117 3117 3116 3116 3116 3115 3115 3114 3114 3113 3113 3112 3111 3110 3109 3108 3107 3105 3104 3103 3102 3102 3100 3099 3098 3097 3096 3095 3094 3092 3091 3090 3089 3087 3085 3084 3082 3080 3079 3078
3087 3087 3087 3087 3087 3087 3087 3088 3088 3088 3089 3089 3090 3090 3091 3091 3091 3091 3091 3092 3092 3093 3094 3097 3099 3100 3101 3102 3103 3104 3105 3106 3107 3108 3109 3110 3111 3112 3113 3113 3114 3114 3114 3114 3114 3114 3114 3113 3113 3113 3112 3112 3111 3111 3110 3110 3109 3108 3107 3105 3104 3103 3101 3100 3099 3098 3097 3096 3095 3094 3092 3091 3090 3089 3088 3086 3085 3084 3082 3080 3078 3076 3075 3073 3072
3082 3083 3083 3083 3084 3084 3084 3084 3084 3084 3085 3085 3086 3087 3088 3088 3089 3088 3088 3089 3089 3089 3089 3091 3094 3096 3097 3098 3100 3101 3103 3104 3104 3105 3106 3108 3109 3109 3110 3110 3111 3111 3111 3111 3111 3111 3111 3110 3110 3110 3109 3108 3108 3107 3107 3106 3105 3104 3103 3101 3100 3099 3098 3097 3095 3094 3093 3092 3090 3089 3088 3087 3085 3084 3083 3081 3080 3078 3076 3074 3073 3071 3069 3067 3065
3078 3078 3079 3079 3079 3080 3080 3081 3081 3081 3081 3081 3082 3083 3084 3085 3085 3085 3086 3087 3089 3089 3088 3089 3091 3093 3093 3093 3095 3097 3099 3100 3101 3103 3104 3105 3106 3106 3107 3107 3108 3108 3109 3109 3109 3108 3108 3107 3107 3106 3106 3105 3104 3104 3103 3102 3101 3100 3099 3098 3097 3095 3094 3093 3091 3090 3089 3087 3086 3084 3083 3082 3080 3079 3077 3076 3074 3072 3071 3069 3067 3065 3063 3062 3060
3073 3074 3075 3075 3076 3076 3077 3077 3077 3077 3078 3078 3079 3080 3081 3082 3083 3083 3083 3084 3086 3087 3088 3088 3089 3090 3091 3091 3092 3094 3096 3097 3099 3100 3101 3102 3102 3103 3104 3104 3105 3105 3105 3105 3105 3105 3104 3104 3103 3103 3102 3101 3101 3100 3099 3098 3097 3096 3095 3094 3093 3091 3090 3089 3087 3085 3084 3082 3081 3080 3078 3076 3075 3073 3072 3070 3068 3067 3065 3063 3062 3060 3057 3056 3054
3069 3070 3071 3071 3072 3072 3073 3073 3074 3074 3074 3075 3076 3077 3078 3079 3080 3080 3081 3081 3082 3083 3084 3085 3086 3087 3089 3090 3090 3092 3093 3095 3096 3097 3098 3098 3099 3100 3100 3101 3101 3101 3102 3102 3101 3101 3100 3100 3099 3099 3098 3097 3096 3096 3095 3094 3093 3092 3091 3090 3088 3087 3085 3084 3082 3081 3079 3077 3076 3074 3073 3071 3070 3068 3066 3065 3063 3062 3060 3058 3057 3055 3052 3050 3048
3065 3065 3066 3067 3067 3068 3068 3069 3070 3070 3070 3071 3072 3073 3074 3075 3076 3077 3078 3079 3080 3080 3079 3080 3081 3083 3085 3087 3088 3089 3091 3092 3093 3094 3094 3095 3095 3096 3096 3097 3097 3097 3098 3098 3097 3097 3096 3096 3095 3094 3094 3093 3092 3091 3090 3089 3088 3087 3086 3085 3083 3082 3080 3079 3077 3076 3074 3073 3071 3069 3068 3066 3064 3063 3061 3060 3058 3057 3055 3053 3051 3050 3047 3045 3043
3059 3059 3060 3061 3062 3062 3063 3064 3065 3066 3066 3067 3068 3068 3070 3071 3072 3073 3074 3075 3076 3077 3076 3076 3077 3078 3080 3083 3085 3086 3088 3089 3090 3091 3091 3091 3092 3092 3093 3093 3094 3094 3094 3094 3093 3093 3092 3092 3091 3090 3089 3088 3087 3087 3086 3085 3084 3083 3082 3080 3079 3077 3075 3074 3072 3071 3069 3068 3066 3064 3063 3061 3059 3058 3056 3055 3053 3052 3050 3048 3046 3044 3042 3040 3038
3052 3053 3054 3055 3056 3057 3058 3058 3059 3060 3061 3062 3063 3064 3065 3066 3067 3068 3070 3071 3072 3073 3073 3074 3074 3076 3077 3079 3081 3083 3084 3085 3086 3087 3087 3088 3088 3089 3089 3090 3090 3090 3090 3090 3089 3089 3088 3088 3087 3086 3085 3084 3083 3082 3082 3081 3080 3078 3077 3075 3074 3072 3071 3069 3067 3066 3064 3062 3061 3059 3058 3056 3055 3053 3051 3050 3048 3047 3045 3043 3041 3039 3037 3035 3033
3044 3045 3047 3049 3050 3051 3052 3053 3054 3055 3056 3057 3058 3059 3060 3061 3062 3063 3064 3066 3067 3068 3069 3070 3071 3073 3074 3076 3077 3079 3080 3080 3081 3082 3083 3084 3085 3085 3086 3086 3086 3086 3086 3086 3085 3084 3084 3083 3083 3082 3081 3080 3079 3078 3077 3076 3075 3073 3072 3070 3069 3067 3066 3064 3063 3061 3059 3058 3056 3055 3053 3052 3050 3048 3046 3045 3043 3041 3039 3037 3035 3033 3031 3029 3026
3035 3037 3038 3040 3042 3044 3045 3046 3048 3049 3050 3051 3052 3053 3055 3056 3057 3058 3059 3061 3062 3063 3065 3066 3067 3068 3070 3071 3072 3073 3074 3075 3076 3078 3079 3080 3081 3082 3083 3083 3083 3083 3082 3081 3081 3080 3080 3079 3078 3077 3076 3076 3075 3074 3073 3071 3070 3068 3067 3065 3064 3062 3061 3059 3058 3056 3055 3053 3052 3050 3049 3047 3046 3044 3042 3040 3038 3036 3034 3031 3029 3027 3024 3022 3019
3026 3028 3029 3031 3033 3035 3037 3039 3041 3042 3043 3045 3046 3047 3049 3050 3051 3053 3054 3055 3057 3058 3060 3061 3062 3064 3065 3066 3067 3067 3069 3070 3072 3074 3076 3077 3078 3079 3079 3079 3079 3078 3078 3077 3076 3076 3075 3075 3074 3073 3072 3071 3070 3069 3068 3066 3065 3064 3062 3061 3059 3058 3056 3055 3053 3052 3051 3049 3048 3046 3045 3043 3041 3039 3037 3035 3033 3031 3028 3025 3022 3020 3017 3015 3013
3018 3019 3021 3022 3023 3025 3028 3030 3032 3034 3036 3038 3039 3040 3042 3043 3045 3047 3049 3050 3052 3053 3054 3056 3057 3059 3060 3060 3061 3063 3065 3066 3068 3071 3072 3073 3074 3075 3075 3075 3075 3074 3073 3073 3072 3072 3071 3070 3069 3068 3067 3066 3065 3064 3063 3062 3061 3059 3058 3056 3055 3053 3052 3051 3050 3048 3047 3045 3044 3042 3040 3038 3036 3034 3032 3030 3028 3025 3022 3019 3016 3013 3011 3009 3007
3010 3011 3012 3014 3016 3018 3019 3021 3024 3026 3028 3030 3031 3033 3035 3037 3038 3040 3042 3044 3045 3047 3049 3050 3052 3053 3053 3054 3056 3059 3061 3063 3065 3067 3067 3068 3069 3070 3070 3070 3070 3069 3069 3068 3068 3067 3066 3065 3065 3064 3063 3062 3061 3060 3059 3058 3056 3055 3053 3052 3050 3049 3048 3047 3046 3045 3043 3041 3040 3038 3036 3034 3032 3029 3027 3024 3022 3019 3016 3013 3010 3007 3005 3003 3002
3002 3003 3004 3006 3008 3010 3012 3014 3016 3018 3020 3022 3024 3026 3028 3030 3032 3034 3036 3038 3039 3041 3042 3043 3045 3046 3047 3049 3052 3054 3056 3058 3060 3061 3062 3063 3064 3065 3065 3065 3065 3064 3064 3063 3063 3062 3061 3061 3060 3059 3059 3058 3057 3056 3055 3053 3052 3051 3049 3048 3047 3046 3045 3044 3043 3041 3040 3038 3036 3034 3031 3029 3027 3024 3021 3018 3016 3013 3010 3007 3004 3002 3001 2999 2998
2992 2994 2996 2997 2999 3002 3004 3006 3007 3009 3011 3014 3016 3018 3021 3023 3026 3028 3031 3033 3034 3035 3036 3038 3039 3041 3042 3042 3044 3047 3049 3051 3054 3055 3056 3058 3059 3060 3060 3060 3060 3059 3059 3058 3058 3058 3057 3057 3056 3056 3055 3054 3053 3052 3051 3050 3048 3047 3046 3045 3045 3043 3042 3041 3040 3038 3036 3034 3032 3030 3027 3024 3022 3019 3016 3013 3010 3007 3005 3002 3000 2998 2997 2996 2995
2982 2984 2986 2988 2991 2993 2995 2997 2999 3001 3004 3006 3009 3011 3013 3016 3019 3022 3024 3027 3029 3030 3032 3034 3036 3037 3038 3039 3040 3043 3045 3047 3050 3051 3052 3054 3055 3055 3056 3055 3055 3055 3055 3054 3054 3054 3053 3053 3052 3052 3051 3050 3049 3048 3047 3046 3046 3045 3044 3043 3042 3041 3040 3038 3037 3035 3033 3031 3028 3026 3023 3020 3017 3014 3011 3008 3005 3002 3000 2998 2997 2995 2994 2993 2992
2974 2975 2977 2979 2982 2984 2987 2989 2991 2994 2996 2999 3002 3004 3007 3009 3012 3015 3018 3020 3022 3025 3027 3029 3031 3033 3035 3036 3038 3040 3043 3044 3046 3047 3049 3050 3051 3051 3051 3051 3051 3051 3051 3051 3050 3050 3050 3049 3049 3048 3047 3047 3046 3045 3044 3044 3043 3042 3041 3040 3039 3038 3037 3036 3034 3032 3029 3027 3025 3023 3020 3016 3013 3010 3006 3003 3000 2998 2997 2995 2994 2992 2991 2990 2989
2969 2968 2969 2971 2973 2976 2979 2981 2983 2986 2989 2992 2995 2998 3001 3004 3006 3009 3011 3013 3016 3019 3022 3024 3026 3028 3030 3033 3035 3037 3039 3041 3043 3044 3045 3046 3046 3047 3047 3047 3047 3047 3047 3047 3047 3047 3046 3046 3045 3044 3044 3044 3043 3043 3042 3041 3041 3040 3039 3038 3037 3036 3035 3033 3031 3029 3026 3024 3022 3019 3016 3012 3009 3005 3002 2999 2997 2995 2994 2992 2991 2990 2989 2988 2987
2964 2963 2964 2964 2966 2968 2971 2974 2976 2979 2982 2986 2989 2992 2995 2999 3001 3004 3006 3008 3011 3013 3017 3019 3022 3024 3026 3028 3031 3033 3035 3037 3038 3040 3041 3042 3043 3043 3043 3044 3044 3044 3044 3044 3044 3043 3043 3042 3042 3041 3041 3041 3041 3040 3040 3039 3038 3038 3037 3036 3035 3034 3032 3030 3028 3026 3024 3022 3019 3016 3012 3008 3005 3001 2998 2996 2994 2993 2992 2990 2989 2988 2987 2986 2985
2960 2959 2959 2959 2960 2962 2964 2967 2970 2972 2976 2979 2983 2986 2990 2993 2996 2999 3002 3004 3006 3009 3011 3014 3018 3020 3021 3023 3025 3028 3030 3032 3034 3035 3037 3038 3039 3039 3039 3040 3040 3040 3041 3041 3041 3040 3040 3039 3039 3039 3039 3039 3039 3038 3037 3037 3036 3035 3035 3034 3033 3031 3030 3028 3026 3024 3021 3019 3016 3013 3009 3005 3002 2999 2996 2994 2992 2991 2989 2989 2988 2987 2985 2984 2983
2956 2955 2955 2955 2955 2956 2958 2961 2964 2967 2970 2974 2977 2981 2984 2987 2991 2994 2997 3000 3002 3005 3007 3009 3012 3015 3017 3018 3020 3022 3025 3027 3029 3031 3032 3034 3034 3035 3036 3036 3037 3037 3038 3038 3037 3037 3037 3037 3037 3037 3037 3037 3036 3036 3035 3035 3034 3033 3033 3032 3030 3029 3028 3026 3024 3021 3019 3016 3013 3010 3007 3003 3000 2997 2994 2992 2991 2989 2988 2987 2986 2985 2984 2982 2980
2953 2952 2951 2950 2951 2952 2953 2955 2958 2961 2965 2968 2972 2976 2979 2982 2985 2989 2992 2995 2998 3001 3003 3006 3008 3010 3012 3013 3015 3016 3019 3022 3025 3026 3028 3029 3030 3031 3032 3033 3034 3034 3034 3034 3034 3034 3035 3035 3035 3035 3035 3034 3034 3034 3033 3032 3032 3031 3030 3029 3029 3027 3026 3024 3021 3019 3016 3014 3011 3008 3005 3002 2998 2995 2993 2991 2989 2987 2986 2985 2984 2983 2981 2980 2978
2950 2948 2948 2947 2947 2948 2949 2951 2954 2956 2960 2963 2967 2970 2974 2978 2981 2984 2988 2991 2994 2997 3000 3003 3006 3008 3009 3011 3012 3013 3016 3019 3021 3022 3024 3025 3026 3028 3029 3030 3031 3031 3031 3031 3031 3032 3032 3033 3033 3033 3032 3032 3032 3032 3031 3031 3030 3030 3029 3028 3027 3026 3024 3022 3019 3017 3014 3011 3009 3006 3003 3000 2997 2994 2991 2989 2987 2985 2984 2983 2982 2980 2979 2978 2976
2947 2945 2945 2945 2945 2945 2946 2948 2950 2953 2955 2959 2962 2966 2970 2973 2977 2981 2984 2987 2991 2994 2997 3000 3003 3005 3007 3008 3009 3011 3013 3016 3018 3019 3020 3022 3023 3025 3026 3027 3027 3028 3028 3028 3029 3029 3030 3031 3031 3030 3030 3030 3030 3030 3029 3029 3028 3028 3027 3026 3026 3024 3022 3020 3018 3015 3012 3010 3007 3005 3002 2999 2996 2993 2990 2988 2985 2983 2982 2981 2979 2978 2976 2975 2974
2946 2944 2943 2944 2944 2944 2945 2946 2948 2950 2952 2955 2959 2962 2966 2970 2974 2978 2981 2984 2987 2991 2994 2997 2999 3002 3003 3005 3007 3009 3011 3013 3015 3016 3017 3018 3020 3021 3023 3023 3024 3025 3026 3026 3027 3027 3028 3028 3028 3028 3028 3028 3028 3028 3027 3027 3027 3026 3026 3025 3024 3023 3021 3019 3016 3013 3011 3008 3006 3003 3001 2998 2996 2993 2990 2987 2984 2982 2980 2979 2977 2975 2974 2972 2971
2945 2943 2943 2943 2943 2943 2944 2945 2947 2949 2951 2953 2956 2960 2963 2967 2971 2975 2978 2981 2984 2988 2991 2993 2996 2999 3001 3002 3004 3007 3009 3011 3012 3013 3015 3016 3017 3018 3020 3021 3021 3022 3023 3024 3025 3025 3025 3026 3026 3026 3026 3026 3026 3026 3026 3026 3025 3025 3024 3024 3022 3021 3019 3017 3014 3012 3010 3008 3005 3003 3000 2997 2995 2992 2989 2986 2983 2981 2979 2977 2975 2973 2972 2971 2969
2947 2944 2943 2943 2944 2944 2945 2946 2947 2948 2950 2952 2955 2958 2962 2966 2969 2973 2976 2979 2982 2985 2988 2990 2993 2996 2998 3000 3002 3005 3007 3008 3009 3011 3012 3013 3015 3016 3017 3018 3019 3020 3021 3022 3022 3023 3023 3023 3023 3024 3025 3025 3025 3025 3025 3024 3024 3024 3023 3022 3021 3020 3018 3015 3013 3011 3009 3007 3005 3002 2999 2996 2994 2991 2988 2985 2983 2980 2978 2976 2974 2972 2970 2969 2968
2950 2948 2947 2946 2946 2946 2946 2947 2947 2948 2950 2951 2954 2957 2961 2964 2967 2970 2974 2977 2979 2982 2985 2988 2991 2994 2996 2998 3000 3002 3004 3005 3006 3008 3009 3011 3012 3014 3015 3016 3017 3018 3019 3020 3020 3021 3021 3021 3022 3023 3023 3023 3023 3023 3023 3023 3023 3022 3022 3021 3020 3018 3016 3014 3012 3010 3009 3007 3004 3001 2998 2996 2993 2990 2988 2985 2982 2980 2977 2975 2973 2971 2969 2968 2966
2953 2952 2951 2950 2949 2949 2949 2949 2949 2950 2951 2952 2954 2957 2960 2963 2966 2970 2973 2975 2978 2981 2983 2987 2990 2992 2994 2996 2998 3000 3001 3003 3004 3006 3007 3009 3010 3012 3013 3014 3015 3017 3017 3018 3018 3018 3019 3020 3021 3021 3021 3022 3022 3022 3022 3022 3022 3021 3020 3019 3018 3017 3015 3013 3011 3009 3008 3006 3003 3001 2998 2995 2992 2990 2987 2985 2982 2979 2976 2973 2971 2969 2968 2966 2965
2957 2955 2954 2954 2953 2952 2951 2951 2952 2952 2953 2954 2956 2959 2961 2964 2967 2970 2972 2975 2977 2979 2982 2985 2989 2991 2993 2995 2997 2998 2999 3001 3003 3004 3006 3007 3009 3010 3011 3013 3014 3015 3015 3016 3016 3016 3017 3018 3019 3019 3020 3020 3020 3020 3020 3020 3020 3020 3018 3017 3016 3015 3013 3011 3010 3008 3007 3005 3003 3000 2998 2995 2992 2989 2987 2984 2981 2978 2975 2972 2970 2968 2966 2964 2963
2961 2959 2958 2957 2956 2955 2954 2954 2954 2955 2956 2957 2959 2961 2963 2966 2968 2971 2973 2974 2976 2978 2981 2984 2987 2990 2993 2994 2996 2997 2999 3000 3002 3003 3005 3006 3007 3008 3010 3011 3012 3013 3013 3014 3014 3015 3016 3017 3018 3018 3018 3019 3019 3019 3019 3019 3018 3018 3016 3015 3014 3013 3012 3010 3009 3007 3006 3004 3002 2999 2997 2994 2991 2989 2986 2983 2980 2977 2975 2972 2970 2967 2965 2963 2961
2964 2962 2961 2960 2959 2958 2958 2957 2957 2958 2959 2960 2962 2963 2965 2967 2969 2971 2973 2973 2975 2977 2981 2983 2986 2989 2992 2994 2995 2997 2998 3000 3001 3002 3003 3005 3006 3007 3008 3010 3010 3011 3012 3012 3013 3014 3015 3016 3016 3017 3017 3017 3017 3017 3017 3017 3016 3016 3015 3013 3012 3011 3010 3009 3007 3006 3004 3003 3001 2999 2996 2994 2991 2988 2986 2983 2980 2977 2975 2972 2969 2967 2964 2962 2960
2969 2967 2965 2963 2962 2961 2961 2961 2961 2961 2962 2964 2965 2966 2968 2969 2971 2973 2974 2975 2976 2979 2981 2984 2986 2989 2992 2994 2995 2996 2998 2999 3000 3001 3002 3004 3005 3006 3007 3008 3009 3010 3011 3012 3013 3013 3014 3015 3015 3016 3016 3016 3016 3016 3015 3015 3015 3014 3013 3012 3011 3010 3009 3008 3006 3005 3003 3002 3000 2998 2995 2993 2991 2988 2986 2983 2980 2977 2975 2972 2969 2967 2964 2962 2959
2973 2971 2970 2968 2966 2965 2964 2964 2964 2965 2966 2967 2968 2970 2971 2972 2973 2975 2976 2977 2979 2981 2983 2985 2988 2990 2992 2993 2995 2996 2997 2998 2999 3000 3002 3003 3004 3005 3006 3007 3008 3009 3010 3011 3012 3012 3013 3014 3014 3014 3015 3015 3015 3014 3014 3013 3013 3012 3011 3010 3009 3008 3007 3006 3005 3004 3002 3001 2999 2997 2995 2993 2991 2988 2986 2983 2980 2978 2975 2972 2969 2967 2964 2962 2959
2976 2975 2974 2972 2971 2970 2969 2969 2968 2968 2969 2970 2971 2972 2973 2974 2976 2977 2978 2980 2981 2983 2985 2987 2988 2990 2991 2993 2994 2995 2996 2997 2999 3000 3001 3002 3003 3004 3005 3006 3007 3008 3009 3010 3011 3011 3012 3013 3013 3013 3013 3013 3013 3013 3013 3012 3011 3011 3010 3009 3008 3007 3006 3005 3004 3003 3001 3000 2998 2996 2994 2992 2990 2988 2986 2983 2981 2978 2975 2973 2970 2967 2965 2962 2959